This is the latest recevied weather packets stored in our database for station/object K0PFX-8. If no packets are shown the sender has not sent any weather packets the latest 10 day(s).
| Time | Temp. | Humidity | Pressure | Rain* | Wind** | Luminosity | Snow |
|---|---|---|---|---|---|---|---|
| 1777848616 | 25° C | 25% | 1010.6 hPa | 0 mm | 6.26 m/s, 226° | - | - |
| 1777847715 | 25° C | 24% | 1010.8 hPa | 0 mm | 4.02 m/s, 253° | - | - |
| 1777846817 | 25° C | 22% | 1010.8 hPa | 0 mm | 6.26 m/s, 218° | - | - |
| 1777845916 | 25.56° C | 22% | 1010.9 hPa | 0 mm | 6.71 m/s, 246° | - | - |
| 1777845018 | 25° C | 23% | 1011.1 hPa | 0 mm | 5.81 m/s, 238° | - | - |
| 1777844117 | 25.56° C | 23% | 1011.1 hPa | 0 mm | 3.13 m/s, 219° | - | - |
| 1777843219 | 25° C | 24% | 1011.3 hPa | 0 mm | 4.92 m/s, 253° | - | - |
| 1777842318 | 24.44° C | 23% | 1011.4 hPa | 0 mm | 4.92 m/s, 195° | - | - |
| 1777841420 | 24.44° C | 23% | 1011.5 hPa | 0 mm | 4.47 m/s, 207° | - | - |
| 1777840519 | 23.89° C | 25% | 1011.8 hPa | 0 mm | 4.02 m/s, 211° | - | - |
| 1777839620 | 23.33° C | 25% | 1012.2 hPa | 0 mm | 4.92 m/s, 214° | - | - |
| 1777838720 | 23.33° C | 27% | 1012.5 hPa | 0 mm | 4.47 m/s, 271° | - | - |
| 1777837821 | 23.33° C | 28% | 1012.9 hPa | 0 mm | 3.58 m/s, 211° | - | - |
| 1777836921 | 22.78° C | 29% | 1013.2 hPa | 0 mm | 4.02 m/s, 205° | - | - |
| 1777836022 | 21.67° C | 27% | 1013.6 hPa | 0 mm | 4.47 m/s, 236° | - | - |
| 1777835121 | 21.67° C | 31% | 1013.9 hPa | 0 mm | 6.26 m/s, 250° | - | - |
| 1777834223 | 21.67° C | 28% | 1014.1 hPa | 0 mm | 1.79 m/s, 201° | - | - |
| 1777833322 | 21.11° C | 32% | 1014.4 hPa | 0 mm | 4.02 m/s, 245° | - | - |
| 1777832424 | 20.56° C | 32% | 1014.8 hPa | 0 mm | 4.47 m/s, 208° | - | - |
| 1777831523 | 20.56° C | 30% | 1015.4 hPa | 0 mm | 3.58 m/s, 187° | - | - |
| 1777830625 | 19.44° C | 31% | 1016 hPa | 0 mm | 5.81 m/s, 222° | - | - |
| 1777829723 | 18.89° C | 31% | 1016.5 hPa | 0 mm | 4.02 m/s, 266° | - | - |
| 1777828825 | 18.89° C | 34% | 1017 hPa | 0 mm | 4.47 m/s, 191° | - | - |
| 1777827925 | 18.33° C | 34% | 1017.5 hPa | 0 mm | 3.58 m/s, 211° | - | - |
| 1777827026 | 17.78° C | 35% | 1017.7 hPa | 0 mm | 4.47 m/s, 184° | - | - |
* Rain latest hour (hover to see other rain measurements)
** Current wind speed in m/s (hover to see current wind gust speed)